Flag Weather past 2 weeks in Schwedt/Oder, Brandenburg, Germany

Now
43 °F

Broken clouds.


Feels Like: 41 °F
Forecast: 31 / 39 °F
Wind: 3 mph from East

Location: Szczecin Airport

Current Time: Nov 26, 2014 at 12:20:49 PM

Latest Report: Nov 26, 2014 at 12:00 PM


Visibility: N/A

Pressure: 30.30 "Hg

Humidity: 81%

Dew point: 37 °F

Location of Schwedt/OderLocation

Historic Weather in Schwedt/Oder — Graph

°F

Schwedt/Oder temperature yesterday

Maximum temperature yesterday: 45 °F (at 12:30 PM)
Minimum temperature yesterday: 39 °F (at 12:00 AM)
Average temperature yesterday: 42 °F

Past Weeks' High & Low Weather Summary

 TemperatureHumidityPressure
High57 °F (Nov 12, 12:30 PM)100% (Nov 11, 11:00 AM)30.36 "Hg (Nov 11, 11:00 AM)
Low36 °F (Nov 19, 6:30 AM)71% (Nov 22, 2:30 PM)29.68 "Hg (Nov 16, 12:30 PM)
Average43 °F93%30.07 "Hg
* Reported Nov 11 11:00 AM — Nov 26 11:00 AM, Schwedt/Oder, Weather by CustomWeather, © 2014

Note: Actual official high and low records may vary slightly from our data, if they occured in-between our weather recording intervals... More about our weather records

Advertising

Schwedt/Oder weather history for previous 24 hours

 ConditionsComfort  
Time TempWeatherWind HumidityBarometerVisibility
11:00 AM
Nov 26
43 °FScattered clouds.6 mph87%30.30 "HgN/A
10:30 AM43 °FPartly sunny.3 mph93%30.30 "Hg5 mi
10:00 AM41 °FPartly sunny.2 mph93%30.30 "Hg4 mi
9:30 AM41 °FPartly sunny.2 mph100%30.30 "Hg4 mi
9:00 AM41 °FPartly sunny.3 mph93%30.30 "Hg4 mi
8:30 AM41 °FFog.2 mph93%30.30 "Hg3 mi
8:00 AM39 °FPartly sunny.2 mph100%30.30 "Hg4 mi
7:30 AM39 °FPassing clouds.3 mph100%30.30 "Hg4 mi
7:00 AM39 °FPassing clouds.3 mph100%30.30 "Hg4 mi
6:30 AM39 °FFog.2 mph100%30.30 "Hg3 mi
6:00 AM39 °FFog.2 mph100%30.30 "Hg3 mi
5:30 AM39 °FFog.3 mph100%30.30 "Hg3 mi
5:00 AM39 °FFog.3 mph100%30.30 "Hg3 mi
4:30 AM39 °FFog.3 mph100%30.30 "Hg2 mi
4:00 AM39 °FFog.3 mph100%30.30 "Hg2 mi
3:30 AM39 °FFog.3 mph100%30.30 "Hg1 mi
3:00 AM39 °FFog.3 mph100%30.30 "Hg1 mi
2:30 AM39 °FFog.2 mph100%30.33 "Hg1 mi
2:00 AM39 °FFog.2 mph100%30.33 "Hg1 mi
1:30 AM39 °FFog.2 mph100%30.33 "Hg1 mi
1:00 AM39 °FFog.6 mph100%30.33 "Hg1 mi
12:30 AM39 °FFog.5 mph100%30.33 "Hg1 mi
12:00 AM41 °FFog.5 mph100%30.33 "Hg1 mi
11:30 PM
Nov 25
41 °FFog.3 mph100%30.33 "Hg0 mi
11:00 PM41 °FFog.2 mph100%30.33 "Hg0 mi
10:30 PM41 °FFog.No wind100%30.33 "Hg0 mi
10:00 PM41 °FFog.No wind100%30.33 "Hg0 mi
9:30 PM43 °FFog.2 mph100%30.33 "Hg0 mi
9:00 PM43 °FFog.3 mph100%30.33 "Hg0 mi
8:30 PM43 °FFog.2 mph100%30.33 "Hg1 mi
8:00 PM43 °FFog.No wind100%30.33 "Hg1 mi
7:30 PM43 °FFog.No wind100%30.33 "Hg1 mi
7:00 PM43 °FFog.2 mph100%30.33 "Hg1 mi
6:30 PM43 °FFog.1 mph100%30.33 "Hg1 mi
6:00 PM43 °FFog.No wind100%30.33 "Hg1 mi
5:30 PM43 °FFog.2 mph100%30.33 "Hg1 mi
5:00 PM45 °FFog.1 mph93%30.33 "Hg1 mi
4:30 PM45 °FFog.2 mph93%30.33 "Hg1 mi
4:00 PM45 °FFog.2 mph93%30.30 "Hg1 mi
3:30 PM45 °FFog.No wind100%30.30 "Hg1 mi
3:00 PM45 °FFog.2 mph100%30.30 "Hg2 mi
2:30 PM45 °FFog.3 mph100%30.30 "Hg2 mi
2:00 PM45 °FFog.2 mph100%30.30 "Hg1 mi
1:30 PM45 °FFog.3 mph100%30.30 "Hg1 mi
1:00 PM45 °FFog.2 mph100%30.33 "Hg1 mi
12:30 PM45 °FFog.3 mph100%30.33 "Hg2 mi
12:00 PM43 °FFog.3 mph100%30.30 "Hg2 mi
Weather by CustomWeather, © 2014

See weather overviewHow to use our weather pages